This demonstration page uses our WeatherBlox Daily Observations layout. Learn more.

Left ArrowRight Arrow

41.55636, -103.73856

Hourly Observations for June 11, 2015

Temp ( °F °C ) Dew Point ( °F °C ) Humidity (%) Winds ( mph kmh ) Pressure ( in mb ) Visibility ( mi km ) Precip ( " mm )
12:11 am 00:11 Cloudy with Nearby Thunderstorms 62 16.7 57 13.9 84 84 WNW 12 19 29.71 1006 10 16.0934 0 0.0254
12:21 am 00:21 Cloudy with Light Rain 60 15.6 57 13.9 90 90 NW 8 13 29.74 1007 8 12.87472 0.01 0.254
12:31 am 00:31 Cloudy with Light Rain 60 15.6 58 14.4 93 93 NW 6 9 29.71 1006 7 11.26538 0.02 0.508
12:53 am 00:53 Cloudy with Rain 60 15.6 58 14.4 93 93 ENE 3 6 29.7 1006 5 8.0467 0.04 1.016
1:53 am 01:53 Mostly Cloudy 59 15 58 14.4 96 96 W 5 7 29.7 1006 10 16.0934 0.05 1.27
2:53 am 02:53 Mostly Clear 59 15 58 14.4 96 96 Calm 29.72 1006 8 12.87472 0 0
3:14 am 03:14 Mostly Clear 59 15 57 14 94 94 NNW 6 9 29.71 1006 8 12.87472 0 0
3:53 am 03:53 Clear 58 14.4 57 13.9 97 97 WNW 5 7 29.73 1007 8 12.87472 0 0
4:53 am 04:53 Mostly Clear with Mist and Fog 57 13.9 56 13.3 96 96 NW 5 7 29.72 1007 4 6.43736 0 0
5:48 am 05:48 Partly Cloudy with Mist and Fog 57 14 55 13 94 94 Calm 29.77 1008 2.5 4.02335 0 0
5:53 am 05:53 Partly Cloudy with Mist and Fog 57 13.9 56 13.3 96 96 Calm 29.74 1007 2 3.21868 0 0
6:12 am 06:12 Partly Cloudy with Mist and Fog 59 15 57 14 94 94 N 6 9 29.74 1007 5 8.0467 0 0
6:53 am 06:53 Cloudy 61 16.1 59 15 93 93 NW 5 7 29.75 1007 8 12.87472 0 0
7:12 am 07:12 Cloudy 63 17 61 16 94 94 N 9 15 29.74 1007 7 11.26538 0 0
7:53 am 07:53 Cloudy 62 16.7 59 15 90 90 N 9 15 29.78 1008 8 12.87472 0 0
8:53 am 08:53 Cloudy 63 17.2 59 15 87 87 NE 7 11 29.79 1009 9 14.48406 0 0
9:37 am 09:37 Cloudy 65 18.3 59 15 81 81 NNE 5 7 29.77 1008 10 16.0934 0 0
9:53 am 09:53 Cloudy 65 18.3 59 15 81 81 NNE 3 6 29.79 1009 10 16.0934 0 0
10:07 am 10:07 Cloudy 65 18.3 59 15 81 81 NNE 3 6 29.77 1008 10 16.0934 0 0
10:41 am 10:41 Cloudy 67 19.4 58 14.4 73 73 NNE 12 19 29.77 1008 10 16.0934 0 0
10:53 am 10:53 Cloudy 67 19.4 59 15 76 76 NNE 13 20 29.8 1009 10 16.0934 0 0
11:39 am 11:39 Cloudy 67 19.4 59 15 76 76 NE 9 15 29.77 1008 10 16.0934 0 0
11:53 am 11:53 Cloudy 67 19.4 59 15 76 76 NE 10 17 29.81 1010 10 16.0934 0 0
12:11 pm 12:11 Cloudy with Light Rain 64 17.8 59 15 84 84 NE 10 17 29.77 1008 9 14.48406 0 0.0254
12:24 pm 12:24 Cloudy 68 20 61 16 78 78 NE 14 22 29.74 1007 10 16.0934 0 0
12:53 pm 12:53 Mostly Cloudy 66 18.9 59 15 78 78 NE 12 19 29.82 1010 10 16.0934 0 0.0254
1:39 pm 13:39 Cloudy 65 18.3 58 14.4 78 78 NNE 14 22 29.77 1008 10 16.0934 0 0
1:53 pm 13:53 Cloudy 65 18.3 58 14.4 78 78 NNE 14 22 29.83 1010 10 16.0934 0 0
2:42 pm 14:42 Cloudy 63 17 59 15 88 88 ENE 12 19 29.8 1009 7 11.26538 0 0
2:50 pm 14:50 Cloudy with Mist and Fog 63 17 59 15 88 88 ENE 12 19 29.8 1009 5 8.0467 0 0
2:53 pm 14:53 Cloudy with Mist and Fog 62 16.7 58 14.4 86 86 NE 12 19 29.85 1011 6 9.65604 0 0
3:23 pm 15:23 Cloudy with Light Rain 62 16.7 59 15 90 90 NNE 12 19 29.8 1009 2.5 4.02335 0.01 0.254
3:32 pm 15:32 Cloudy with Light Rain 63 17 59 15 88 88 NNE 12 19 29.8 1009 3 4.82802 0 0
3:53 pm 15:53 Cloudy with Light Rain 61 16.1 58 14.4 90 90 NNE 13 20 29.87 1012 7 11.26538 0.02 0.508
4:53 pm 16:53 Cloudy 61 16.1 57 13.9 87 87 NE 12 19 29.89 1012 10 16.0934 0 0.0254
5:53 pm 17:53 Cloudy with Light Rain 61 16.1 57 13.9 87 87 NE 9 15 29.91 1013 10 16.0934 0 0.0254
6:21 pm 18:21 Cloudy with Light Rain 60 15.6 57 13.9 90 90 NNE 10 17 29.85 1011 6 9.65604 0.01 0.254
6:53 pm 18:53 Cloudy with Light Rain 59 15 56 13.3 90 90 NNE 10 17 29.91 1013 8 12.87472 0.02 0.508
7:04 pm 19:04 Cloudy with Light Rain 59 15 57 14 94 94 NE 10 17 29.88 1012 8 12.87472 0 0
7:16 pm 19:16 Cloudy with Light Rain 59 15 57 13.9 93 93 NE 10 17 29.88 1012 8 12.87472 0 0.0254
7:44 pm 19:44 Cloudy 61 16 57 14 88 88 NE 8 13 29.85 1011 10 16.0934 0 0
7:53 pm 19:53 Cloudy 60 15.6 57 13.9 90 90 NE 7 11 29.91 1013 10 16.0934 0 0.0254
8:05 pm 20:05 Cloudy 60 15.6 57 13.9 90 90 NE 6 9 29.85 1011 10 16.0934 0 0
8:46 pm 20:46 Cloudy 59 15 57 13.9 93 93 ENE 7 11 29.88 1012 10 16.0934 0 0
8:53 pm 20:53 Cloudy 59 15 56 13.3 90 90 undefined N/A 29.92 1013 10 16.0934 0 0
9:53 pm 21:53 Cloudy 58 14.4 56 13.3 93 93 E 6 9 29.93 1014 7 11.26538 0 0
10:53 pm 22:53 Cloudy 58 14.4 56 13.3 93 93 ENE 6 9 29.94 1014 9 14.48406 0 0
11:26 pm 23:26 Cloudy 57 14 55 13 94 94 ENE 6 9 29.91 1013 7 11.26538 0 0
11:53 pm 23:53 Cloudy with Light Rain 58 14.4 56 13.3 93 93 E 6 9 29.93 1014 6 9.65604 0 0.0254

Powered by AerisWeather